Плещеево озеро

Россия / Ярославская область     56°46′14″N   38°47′01″E
темп.,
°C
ветер,
м/с
пор.,
м/с
влажн.,
%
обл.,
%
осадки,
мм/ч
давл.,
гПа
погр.,
м
16 мая, вс
вс1600:00+12ю310935 0.0 1009225
03:00+12ююз310965 0.0 1009272
06:00+13ююз411902 0.0 1010458
09:00+18юз610684 0.0 10111120
12:00+20юз585558 0.1 10121814
15:00+19ююз3861100 0.6 1012932
18:00+18юз49787 1.1 1012570
21:00+14юз36949 1.1 1013113
17 мая, пн
пн1700:00+13юз22940 0.0 101430
03:00+12ююз129478 0.0 101611
06:00+13ююв118984 0.0 101638
09:00+19юв236979 0.0 1016502
12:00+22юв345540 0.0 10161310
15:00+23вюв5657100 0.0 10151237
18:00+22в49695 0.0 1014660
21:00+17в4139195 0.4 1013282
18 мая, вт
вт1800:00+15вюв310940 0.0 1013181
03:00+14вюв389318 0.0 1013152
06:00+15вюв412865 0.0 1012265
09:00+22юв5145973 0.0 1012622
12:00+26юв6124934 0.0 10111272
15:00+27юв610469 0.0 10111942
18:00+24вюв511605 0.0 1010686
21:00+18вюв415785 0.0 1010381
19 мая, ср
ср1900:00+16юв41483100 0.0 1010346
03:00+16юв415805 0.0 1010344
06:00+17юв5167425 0.0 1009424
09:00+22юв614585 0.0 1009710
12:00+26юв612483 0.0 10081196
15:00+27вюв716485 0.0 10062563
18:00+24вюв713595 0.0 10051368
21:00+18ю37865 1.2 1005216
20 мая, чт
чт2000:00+15ююв399772 4.1 1007278
03:00+13вюв379819 4.1 1007183
06:00+14юв31096100 0.3 1005543
09:00+17ююв588116 1.1 1005882
12:00+18ююв697018 1.4 10041354
15:00+17ююв697618 3.9 10041188
18:00+15ююв598529 1.6 1004935
21:00+12ю41194100 2.0 1005487